2021-015B (47700 NORAD) Tracking and Keplerian Element Data

This shows tracking and keplerian element data for the satellite.

Feedback or suggestion? Click here.




ElementValue
Catalog47700
Name2021-015B
Epoch Orbit446
Epoch Day88.75184407
Epoch Year2021
RAAN163.0325
Inclination97.3785
Eccentricity0.0045765
Argument of Perigee143.1604
Mean Anonmoly217.2842
Mean Motion15.1256847
Decay Rate-6.6E-07
L11 47700U 21015B 21088.75184407 -.00000066 00000-0 00000-0 0 9995
L22 47700 97.3785 163.0325 0045765 143.1604 217.2842 15.12568470 4464



Live tracking and technical data element details for 2021-015B (NORAD 47700). 2021-015B can be tracked NOW for your location showing map with azimuth and elevation plus other details from your city location.







IsCatalogInMostPopularTable: catalog: 47700, numindb: 110
Update: records affected: 1



GetName: 47700 2021-015B

Hit Count: updated at: Sat, 10 Jun 2023 23:43:47 GMT